| time (UTC) | temp C | wind direction | speed KPH | gust KPH | rain 1hr cm | rain 24hr cm | rain mn cm | humidity % | barometer mb |
| 20260510190853 | 19 | 74 | 0.0 | 3.2 | 0.00 | 0.30 | 0.00 | 64 | 975.3 |
| 20260510190351 | 19 | 253 | 0.0 | 0.0 | 0.00 | 0.36 | 0.00 | 64 | 975.3 |
| 20260510185849 | 18 | 267 | 0.0 | 1.6 | 0.00 | 0.38 | 0.00 | 66 | 975.2 |
| 20260510184850 | 18 | 262 | 0.0 | 3.2 | 0.00 | 0.43 | 0.00 | 67 | 975.3 |
| 20260510184348 | 18 | 334 | 0.0 | 0.0 | 0.00 | 0.43 | 0.00 | 65 | 975.3 |
| 20260510183847 | 18 | 78 | 0.0 | 0.0 | 0.00 | 0.43 | 0.00 | 66 | 975.4 |
| 20260510183340 | 18 | 82 | 0.0 | 3.2 | 0.00 | 0.46 | 0.00 | 67 | 975.4 |
| 20260510182833 | 18 | 113 | 0.0 | 3.2 | 0.00 | 0.46 | 0.00 | 66 | 975.4 |
| 20260510182326 | 19 | 262 | 0.0 | 0.0 | 0.00 | 0.46 | 0.00 | 63 | 975.4 |
| 20260510181821 | 19 | 159 | 0.0 | 4.8 | 0.00 | 0.46 | 0.00 | 67 | 975.4 |
| 20260510181315 | 19 | 78 | 0.0 | 4.8 | 0.00 | 0.48 | 0.00 | 66 | 975.3 |
| 20260510180808 | 19 | 311 | 0.0 | 1.6 | 0.00 | 0.48 | 0.00 | 66 | 975.1 |
| 20260510180316 | 19 | 206 | 0.0 | 1.6 | 0.00 | 0.48 | 0.00 | 69 | 975.1 |
| 20260510175757 | 19 | 244 | 0.0 | 0.0 | 0.00 | 0.51 | 0.00 | 69 | 975.1 |
| 20260510174745 | 19 | 86 | 0.0 | 0.0 | 0.00 | 0.51 | 0.00 | 66 | 975.1 |
| 20260510174238 | 19 | 283 | 0.0 | 0.0 | 0.00 | 0.53 | 0.00 | 68 | 975.0 |
| 20260510173733 | 19 | 78 | 0.0 | 1.6 | 0.00 | 0.53 | 0.00 | 67 | 974.8 |
| 20260510173227 | 19 | 281 | 0.0 | 1.6 | 0.00 | 0.56 | 0.00 | 69 | 974.9 |
| 20260510172721 | 19 | 254 | 0.0 | 1.6 | 0.00 | 0.56 | 0.00 | 68 | 975.0 |
| 20260510172215 | 19 | 154 | 0.0 | 1.6 | 0.00 | 0.58 | 0.00 | 66 | 975.0 |
| 20260510171709 | 19 | 311 | 0.0 | 1.6 | 0.00 | 0.58 | 0.00 | 67 | 974.9 |
| 20260510171203 | 19 | 110 | 0.0 | 1.6 | 0.00 | 0.61 | 0.00 | 67 | 974.9 |
| 20260510170657 | 18 | 125 | 0.0 | 1.6 | 0.00 | 0.61 | 0.00 | 69 | 974.8 |
| 20260510170151 | 18 | 297 | 0.0 | 0.0 | 0.00 | 0.61 | 0.00 | 67 | 974.8 |
| 20260510165645 | 18 | 273 | 0.0 | 1.6 | 0.00 | 0.64 | 0.00 | 70 | 974.9 |
| 20260510165139 | 17 | 242 | 0.0 | 1.6 | 0.00 | 0.64 | 0.00 | 69 | 974.9 |
| 20260510164633 | 17 | 281 | 0.0 | 0.0 | 0.00 | 0.64 | 0.00 | 72 | 975.1 |
| 20260510164126 | 17 | 190 | 0.0 | 0.0 | 0.00 | 0.66 | 0.00 | 72 | 975.2 |
| 20260510163621 | 17 | 271 | 0.0 | 1.6 | 0.00 | 0.66 | 0.00 | 71 | 975.2 |
| 20260510163115 | 17 | 237 | 0.0 | 1.6 | 0.00 | 0.66 | 0.00 | 71 | 975.2 |
| 20260510162609 | 17 | 159 | 0.0 | 1.6 | 0.00 | 0.69 | 0.00 | 72 | 975.3 |
| 20260510162103 | 16 | 307 | 0.0 | 1.6 | 0.00 | 0.69 | 0.00 | 73 | 975.2 |
| 20260510161050 | 16 | 176 | 0.0 | 3.2 | 0.00 | 0.71 | 0.00 | 71 | 975.3 |
| 20260510160545 | 17 | 175 | 0.0 | 1.6 | 0.00 | 0.71 | 0.00 | 72 | 975.3 |
| 20260510160052 | 17 | 264 | 0.0 | 0.0 | 0.00 | 0.71 | 0.00 | 71 | 975.3 |
| 20260510155533 | 17 | 254 | 0.0 | 0.0 | 0.00 | 0.74 | 0.00 | 70 | 975.4 |
| 20260510155027 | 17 | 260 | 0.0 | 0.0 | 0.00 | 0.74 | 0.00 | 72 | 975.4 |
| 20260510154521 | 17 | 264 | 0.0 | 0.0 | 0.00 | 0.74 | 0.00 | 74 | 975.3 |
| 20260510154015 | 17 | 242 | 0.0 | 0.0 | 0.00 | 0.74 | 0.00 | 74 | 975.3 |
| 20260510153509 | 17 | 245 | 0.0 | 0.0 | 0.00 | 0.74 | 0.00 | 72 | 975.3 |
| 20260510153015 | 17 | 257 | 0.0 | 0.0 | 0.00 | 0.76 | 0.00 | 72 | 975.2 |
| 20260510151951 | 17 | 270 | 0.0 | 0.0 | 0.00 | 0.76 | 0.00 | 72 | 975.1 |
| 20260510151445 | 17 | 284 | 0.0 | 0.0 | 0.00 | 0.76 | 0.00 | 74 | 975.1 |
| 20260510150939 | 17 | 169 | 0.0 | 0.0 | 0.00 | 0.76 | 0.00 | 71 | 975.2 |
| 20260510150433 | 17 | 230 | 0.0 | 0.0 | 0.00 | 0.76 | 0.00 | 75 | 975.0 |
| 20260510145927 | 17 | 232 | 0.0 | 0.0 | 0.00 | 0.79 | 0.00 | 78 | 975.0 |
| 20260510145421 | 17 | 261 | 0.0 | 0.0 | 0.00 | 0.79 | 0.00 | 75 | 975.0 |
| 20260510144915 | 16 | 172 | 0.0 | 0.0 | 0.00 | 0.79 | 0.00 | 79 | 975.0 |
| 20260510144409 | 16 | 169 | 0.0 | 1.6 | 0.00 | 0.79 | 0.00 | 79 | 975.0 |
| 20260510143357 | 16 | 215 | 0.0 | 0.0 | 0.00 | 0.81 | 0.00 | 79 | 974.9 |
| 20260510142851 | 15 | 271 | 0.0 | 0.0 | 0.00 | 0.81 | 0.00 | 80 | 974.9 |
| 20260510142345 | 15 | 180 | 0.0 | 1.6 | 0.00 | 0.84 | 0.00 | 80 | 974.9 |
| 20260510141839 | 15 | 226 | 0.0 | 1.6 | 0.00 | 0.84 | 0.00 | 80 | 974.8 |
| 20260510141336 | 15 | 176 | 0.0 | 1.6 | 0.00 | 0.86 | 0.00 | 84 | 974.8 |
| 20260510140827 | 15 | 186 | 0.0 | 1.6 | 0.00 | 0.86 | 0.00 | 83 | 974.8 |
| 20260510140321 | 14 | 174 | 0.0 | 1.6 | 0.00 | 0.89 | 0.00 | 82 | 975.0 |
| 20260510135815 | 14 | 202 | 0.0 | 0.0 | 0.00 | 0.91 | 0.00 | 83 | 975.0 |
| 20260510134804 | 13 | 223 | 0.0 | 0.0 | 0.00 | 0.91 | 0.00 | 85 | 975.0 |
| 20260510134257 | 13 | 221 | 0.0 | 1.6 | 0.00 | 0.91 | 0.00 | 85 | 975.0 |
| 20260510133751 | 13 | 220 | 0.0 | 1.6 | 0.00 | 0.91 | 0.00 | 86 | 975.0 |
| 20260510133245 | 13 | 221 | 0.0 | 1.6 | 0.00 | 0.91 | 0.00 | 85 | 975.2 |
| 20260510132743 | 13 | 163 | 0.0 | 0.0 | 0.00 | 0.91 | 0.00 | 86 | 975.1 |
| 20260510131246 | 12 | 122 | 0.0 | 0.0 | 0.00 | 0.91 | 0.00 | 90 | 975.2 |
| 20260510130741 | 12 | 122 | 0.0 | 0.0 | 0.00 | 0.91 | 0.00 | 90 | 975.1 |
| 20260510130241 | 12 | 122 | 0.0 | 0.0 | 0.00 | 0.91 | 0.00 | 92 | 975.1 |
| 20260510125741 | 12 | 122 | 0.0 | 0.0 | 0.00 | 0.91 | 0.00 | 91 | 975.1 |
| 20260510125241 | 11 | 122 | 0.0 | 0.0 | 0.00 | 0.94 | 0.00 | 92 | 975.1 |
| 20260510124741 | 11 | 123 | 0.0 | 0.0 | 0.00 | 0.94 | 0.00 | 92 | 975.1 |
| 20260510124241 | 11 | 334 | 0.0 | 0.0 | 0.00 | 0.94 | 0.00 | 92 | 975.0 |
| 20260510123741 | 11 | 334 | 0.0 | 0.0 | 0.00 | 0.94 | 0.00 | 92 | 975.0 |
| 20260510123238 | 11 | 334 | 0.0 | 0.0 | 0.00 | 0.94 | 0.00 | 93 | 975.0 |
| 20260510122737 | 11 | 355 | 0.0 | 0.0 | 0.00 | 0.94 | 0.00 | 93 | 975.0 |
| 20260510122238 | 11 | 355 | 0.0 | 0.0 | 0.00 | 0.94 | 0.00 | 93 | 975.0 |
| 20260510121737 | 11 | 355 | 0.0 | 0.0 | 0.00 | 0.97 | 0.00 | 93 | 974.9 |
| 20260510121238 | 11 | 355 | 0.0 | 0.0 | 0.00 | 0.97 | 0.00 | 93 | 974.9 |
| 20260510120239 | 10 | 0 | 0.0 | 0.0 | 0.00 | 0.99 | 0.00 | 93 | 974.9 |
| 20260510115738 | 10 | 0 | 0.0 | 0.0 | 0.00 | 0.99 | 0.00 | 93 | 974.8 |
| 20260510114736 | 10 | 0 | 0.0 | 0.0 | 0.00 | 0.99 | 0.00 | 93 | 975.0 |
| 20260510114237 | 10 | 0 | 0.0 | 0.0 | 0.00 | 1.02 | 0.00 | 94 | 975.0 |
| 20260510113737 | 10 | 0 | 0.0 | 0.0 | 0.00 | 1.02 | 0.00 | 93 | 975.0 |
| 20260510113237 | 10 | 0 | 0.0 | 0.0 | 0.00 | 1.02 | 0.00 | 93 | 975.1 |
| 20260510112236 | 10 | 0 | 0.0 | 0.0 | 0.00 | 1.04 | 0.00 | 93 | 975.2 |
| 20260510111736 | 10 | 0 | 0.0 | 0.0 | 0.00 | 1.04 | 0.00 | 94 | 975.1 |
| 20260510111237 | 10 | 0 | 0.0 | 0.0 | 0.00 | 1.04 | 0.00 | 94 | 975.1 |
| 20260510110736 | 10 | 0 | 0.0 | 0.0 | 0.00 | 1.04 | 0.00 | 94 | 975.0 |
| 20260510110231 | 10 | 0 | 0.0 | 0.0 | 0.00 | 1.04 | 0.00 | 94 | 975.0 |
| 20260510105724 | 10 | 0 | 0.0 | 0.0 | 0.00 | 1.07 | 0.00 | 94 | 974.9 |
| 20260510105218 | 10 | 0 | 0.0 | 0.0 | 0.00 | 1.07 | 0.00 | 94 | 974.8 |
| 20260510104712 | 10 | 0 | 0.0 | 1.6 | 0.00 | 1.09 | 0.00 | 94 | 974.7 |
| 20260510104206 | 10 | 0 | 0.0 | 1.6 | 0.00 | 1.09 | 0.00 | 94 | 974.7 |
| 20260510103700 | 10 | 0 | 0.0 | 0.0 | 0.00 | 1.12 | 0.00 | 94 | 974.5 |
| 20260510103154 | 10 | 0 | 0.0 | 0.0 | 0.00 | 1.14 | 0.00 | 94 | 974.4 |
| 20260510102648 | 10 | 0 | 0.0 | 0.0 | 0.00 | 1.17 | 0.00 | 94 | 974.3 |
| 20260510102142 | 10 | 0 | 0.0 | 0.0 | 0.00 | 1.17 | 0.00 | 94 | 974.4 |
| 20260510101636 | 10 | 0 | 0.0 | 0.0 | 0.00 | 1.19 | 0.00 | 94 | 974.2 |
| 20260510101130 | 10 | 0 | 0.0 | 0.0 | 0.00 | 1.22 | 0.00 | 94 | 974.1 |
| 20260510100118 | 10 | 0 | 0.0 | 0.0 | 0.00 | 1.24 | 0.00 | 94 | 974.0 |
| 20260510095612 | 10 | 0 | 0.0 | 0.0 | 0.00 | 1.24 | 0.00 | 94 | 974.1 |
| 20260510095106 | 10 | 0 | 0.0 | 0.0 | 0.00 | 1.24 | 0.00 | 94 | 974.1 |
| 20260510094600 | 10 | 0 | 0.0 | 0.0 | 0.00 | 1.27 | 0.00 | 94 | 973.9 |
| 20260510094054 | 10 | 0 | 0.0 | 0.0 | 0.00 | 1.27 | 0.00 | 94 | 973.8 |
| 20260510093548 | 10 | 0 | 0.0 | 0.0 | 0.00 | 1.30 | 0.00 | 94 | 973.6 |
| 20260510093055 | 10 | 0 | 0.0 | 0.0 | 0.00 | 1.30 | 0.00 | 94 | 973.4 |
| 20260510092030 | 10 | 0 | 0.0 | 0.0 | 0.00 | 1.35 | 0.00 | 94 | 973.5 |
| 20260510091017 | 9 | 0 | 0.0 | 0.0 | 0.00 | 1.37 | 0.00 | 94 | 973.3 |
| 20260510090512 | 9 | 0 | 0.0 | 3.2 | 0.00 | 1.37 | 0.00 | 94 | 973.2 |
| 20260510090005 | 9 | 0 | 0.0 | 3.2 | 0.00 | 1.40 | 0.00 | 94 | 973.2 |
| 20260510085500 | 9 | 51 | 0.0 | 4.8 | 0.00 | 1.40 | 0.00 | 94 | 973.2 |
| 20260510084953 | 9 | 24 | 0.0 | 4.8 | 0.00 | 1.42 | 0.00 | 94 | 973.3 |
| 20260510084449 | 9 | 22 | 0.0 | 1.6 | 0.00 | 1.42 | 0.00 | 94 | 973.3 |
| 20260510083942 | 9 | 22 | 0.0 | 3.2 | 0.00 | 1.42 | 0.00 | 94 | 973.3 |
| 20260510083436 | 9 | 22 | 0.0 | 3.2 | 0.00 | 1.45 | 0.00 | 94 | 973.5 |
| 20260510082931 | 9 | 33 | 0.0 | 1.6 | 0.00 | 1.45 | 0.00 | 94 | 973.4 |
| 20260510082424 | 9 | 33 | 0.0 | 1.6 | 0.00 | 1.45 | 0.00 | 94 | 973.3 |
| 20260510081918 | 9 | 33 | 0.0 | 1.6 | 0.00 | 1.45 | 0.00 | 94 | 973.7 |
| 20260510081412 | 9 | 33 | 0.0 | 1.6 | 0.00 | 1.45 | 0.00 | 94 | 973.7 |
| 20260510080906 | 9 | 32 | 0.0 | 1.6 | 0.00 | 1.45 | 0.00 | 94 | 973.9 |
| 20260510080400 | 9 | 33 | 0.0 | 1.6 | 0.00 | 1.45 | 0.00 | 94 | 973.9 |
| 20260510075854 | 9 | 33 | 0.0 | 1.6 | 0.00 | 1.45 | 0.00 | 94 | 973.9 |
| 20260510075348 | 9 | 33 | 0.0 | 1.6 | 0.00 | 1.45 | 0.00 | 94 | 974.0 |
| 20260510074336 | 9 | 36 | 0.0 | 1.6 | 0.00 | 1.45 | 0.00 | 94 | 974.2 |
| 20260510073830 | 9 | 31 | 0.0 | 0.0 | 0.00 | 1.45 | 0.00 | 94 | 974.2 |
| 20260510073324 | 9 | 31 | 0.0 | 0.0 | 0.00 | 1.45 | 0.00 | 94 | 974.2 |
| 20260510072312 | 9 | 31 | 0.0 | 0.0 | 0.00 | 1.45 | 0.00 | 94 | 974.2 |
| 20260510071805 | 9 | 31 | 0.0 | 0.0 | 0.00 | 1.45 | 0.00 | 94 | 974.0 |
| 20260510071300 | 9 | 31 | 0.0 | 0.0 | 0.00 | 1.45 | 0.00 | 94 | 973.9 |
| 20260510070754 | 9 | 31 | 0.0 | 0.0 | 0.00 | 1.45 | 0.00 | 94 | 973.9 |
| 20260510070248 | 9 | 31 | 0.0 | 0.0 | 0.00 | 1.45 | 0.00 | 94 | 973.8 |
| 20260510065742 | 9 | 31 | 0.0 | 0.0 | 0.00 | 1.45 | 0.00 | 94 | 973.9 |
| 20260510065235 | 9 | 31 | 0.0 | 0.0 | 0.00 | 1.45 | 0.00 | 94 | 973.8 |
| 20260510064729 | 8 | 31 | 0.0 | 0.0 | 0.00 | 1.45 | 0.00 | 94 | 973.7 |
| 20260510064224 | 8 | 31 | 0.0 | 0.0 | 0.00 | 1.45 | 0.00 | 94 | 973.7 |
| 20260510063718 | 8 | 31 | 0.0 | 0.0 | 0.00 | 1.45 | 0.00 | 94 | 973.6 |
| 20260510063213 | 8 | 31 | 0.0 | 0.0 | 0.00 | 1.45 | 0.00 | 94 | 973.6 |
| 20260510062706 | 8 | 31 | 0.0 | 0.0 | 0.00 | 1.45 | 0.00 | 94 | 973.6 |
| 20260510062200 | 8 | 31 | 0.0 | 0.0 | 0.00 | 1.45 | 0.00 | 94 | 973.6 |
| 20260510061654 | 8 | 31 | 0.0 | 0.0 | 0.00 | 1.45 | 0.00 | 94 | 973.5 |
| 20260510060642 | 8 | 31 | 0.0 | 0.0 | 0.00 | 1.45 | 0.00 | 94 | 973.6 |
| 20260510060135 | 8 | 31 | 0.0 | 0.0 | 0.00 | 1.45 | 0.00 | 94 | 973.7 |
| 20260510055630 | 8 | 31 | 0.0 | 0.0 | 0.00 | 1.45 | 0.00 | 94 | 973.7 |
| 20260510055124 | 8 | 31 | 0.0 | 0.0 | 0.00 | 1.45 | 0.00 | 94 | 973.7 |
| 20260510054618 | 8 | 31 | 0.0 | 0.0 | 0.00 | 1.45 | 0.00 | 94 | 973.8 |
| 20260510054118 | 8 | 31 | 0.0 | 0.0 | 0.00 | 1.45 | 0.00 | 94 | 973.9 |
| 20260510053616 | 8 | 31 | 0.0 | 0.0 | 0.00 | 1.45 | 0.00 | 94 | 973.9 |
| 20260510053114 | 8 | 31 | 0.0 | 0.0 | 0.00 | 1.45 | 0.00 | 94 | 974.0 |
| 20260510052612 | 8 | 31 | 0.0 | 0.0 | 0.00 | 1.45 | 0.00 | 94 | 973.9 |
| 20260510052110 | 8 | 31 | 0.0 | 0.0 | 0.00 | 1.45 | 0.00 | 94 | 973.8 |
| 20260510051610 | 8 | 31 | 0.0 | 0.0 | 0.00 | 1.45 | 0.00 | 94 | 973.9 |
| 20260510051110 | 8 | 31 | 0.0 | 0.0 | 0.00 | 1.45 | 0.00 | 94 | 973.8 |
| 20260510050608 | 8 | 31 | 0.0 | 0.0 | 0.00 | 1.45 | 0.00 | 94 | 973.7 |
| 20260510050112 | 8 | 31 | 0.0 | 0.0 | 0.00 | 1.45 | 0.00 | 94 | 973.8 |
| 20260510045606 | 8 | 31 | 0.0 | 0.0 | 0.00 | 1.45 | 0.00 | 94 | 973.8 |
| 20260510045106 | 9 | 31 | 0.0 | 0.0 | 0.00 | 1.45 | 0.00 | 94 | 973.7 |
| 20260510044604 | 9 | 31 | 0.0 | 0.0 | 0.00 | 1.45 | 0.00 | 94 | 973.8 |
| 20260510044102 | 9 | 31 | 0.0 | 0.0 | 0.00 | 1.45 | 0.00 | 94 | 973.8 |
| 20260510043600 | 9 | 31 | 0.0 | 0.0 | 0.00 | 1.45 | 0.00 | 94 | 973.8 |
| 20260510043058 | 9 | 31 | 0.0 | 0.0 | 0.00 | 1.45 | 0.00 | 94 | 973.8 |
| 20260510042556 | 9 | 31 | 0.0 | 0.0 | 0.00 | 1.45 | 0.00 | 94 | 973.9 |
| 20260510042054 | 8 | 31 | 0.0 | 0.0 | 0.00 | 1.45 | 0.00 | 94 | 973.8 |
| 20260510040552 | 8 | 31 | 0.0 | 0.0 | 0.00 | 1.45 | 0.00 | 94 | 973.8 |
| 20260510040059 | 8 | 31 | 0.0 | 0.0 | 0.00 | 1.45 | 0.00 | 94 | 973.9 |
| 20260510035547 | 8 | 31 | 0.0 | 0.0 | 0.00 | 1.45 | 1.45 | 94 | 973.9 |
| 20260510035041 | 8 | 31 | 0.0 | 0.0 | 0.00 | 1.45 | 1.45 | 94 | 973.8 |
| 20260510034535 | 9 | 31 | 0.0 | 0.0 | 0.00 | 1.45 | 1.45 | 94 | 973.6 |
| 20260510034029 | 9 | 31 | 0.0 | 0.0 | 0.00 | 1.45 | 1.45 | 94 | 973.5 |
| 20260510033017 | 9 | 31 | 0.0 | 0.0 | 0.00 | 1.45 | 1.45 | 94 | 973.6 |
| 20260510032516 | 9 | 31 | 0.0 | 0.0 | 0.00 | 1.45 | 1.45 | 94 | 973.7 |
| 20260510032000 | 9 | 31 | 0.0 | 0.0 | 0.00 | 1.45 | 1.45 | 94 | 973.9 |
| 20260510030949 | 9 | 31 | 0.0 | 0.0 | 0.00 | 1.45 | 1.45 | 94 | 973.8 |
| 20260510030443 | 9 | 31 | 0.0 | 0.0 | 0.00 | 1.45 | 1.45 | 94 | 973.8 |
| 20260510024924 | 9 | 31 | 0.0 | 0.0 | 0.00 | 1.45 | 1.45 | 94 | 973.7 |
| 20260510024417 | 9 | 31 | 0.0 | 0.0 | 0.00 | 1.45 | 1.45 | 94 | 973.7 |
| 20260510023911 | 9 | 31 | 0.0 | 0.0 | 0.00 | 1.45 | 1.45 | 94 | 973.8 |
| 20260510022859 | 9 | 31 | 0.0 | 0.0 | 0.00 | 1.45 | 1.45 | 94 | 973.9 |
| 20260510022353 | 9 | 31 | 0.0 | 0.0 | 0.00 | 1.45 | 1.45 | 93 | 973.8 |
| 20260510021847 | 9 | 31 | 0.0 | 0.0 | 0.00 | 1.45 | 1.45 | 93 | 974.0 |
| 20260510021341 | 9 | 31 | 0.0 | 0.0 | 0.00 | 1.45 | 1.45 | 93 | 973.8 |
| 20260510020835 | 9 | 31 | 0.0 | 0.0 | 0.00 | 1.45 | 1.45 | 93 | 973.9 |
| 20260510020329 | 9 | 31 | 0.0 | 0.0 | 0.00 | 1.45 | 1.45 | 93 | 973.8 |
| 20260510015823 | 9 | 31 | 0.0 | 0.0 | 0.00 | 1.45 | 1.45 | 93 | 973.8 |
| 20260510015317 | 9 | 31 | 0.0 | 0.0 | 0.00 | 1.45 | 1.45 | 93 | 973.7 |
| 20260510014811 | 9 | 31 | 0.0 | 0.0 | 0.00 | 1.45 | 1.45 | 94 | 973.7 |
| 20260510013759 | 9 | 31 | 0.0 | 0.0 | 0.00 | 1.45 | 1.45 | 94 | 973.9 |
| 20260510013253 | 9 | 31 | 0.0 | 0.0 | 0.00 | 1.45 | 1.45 | 94 | 973.9 |
| 20260510012747 | 9 | 31 | 0.0 | 0.0 | 0.00 | 1.45 | 1.45 | 93 | 973.9 |
| 20260510012241 | 9 | 31 | 0.0 | 0.0 | 0.00 | 1.45 | 1.45 | 93 | 973.9 |
| 20260510011229 | 9 | 31 | 0.0 | 0.0 | 0.00 | 1.45 | 1.45 | 93 | 974.2 |
| 20260510010723 | 9 | 31 | 0.0 | 0.0 | 0.00 | 1.45 | 1.45 | 93 | 974.1 |
| 20260510005711 | 8 | 31 | 0.0 | 0.0 | 0.00 | 1.45 | 1.45 | 93 | 973.7 |
| 20260510005205 | 8 | 31 | 0.0 | 0.0 | 0.00 | 1.45 | 1.45 | 93 | 973.7 |
| 20260510004659 | 9 | 31 | 0.0 | 0.0 | 0.00 | 1.45 | 1.45 | 93 | 973.7 |
| 20260510004154 | 9 | 31 | 0.0 | 0.0 | 0.00 | 1.45 | 1.45 | 93 | 973.6 |
| 20260510003141 | 9 | 31 | 0.0 | 0.0 | 0.00 | 1.45 | 1.45 | 93 | 973.3 |
| 20260510002634 | 9 | 31 | 0.0 | 0.0 | 0.00 | 1.45 | 1.45 | 93 | 973.1 |
| 20260510002134 | 9 | 31 | 0.0 | 0.0 | 0.00 | 1.45 | 1.45 | 93 | 973.2 |
| 20260510001133 | 9 | 31 | 0.0 | 0.0 | 0.00 | 1.45 | 1.45 | 92 | 973.1 |
| 20260510000631 | 10 | 31 | 0.0 | 0.0 | 0.00 | 1.45 | 1.45 | 92 | 972.8 |
| 20260510000131 | 10 | 31 | 0.0 | 0.0 | 0.00 | 1.45 | 1.45 | 92 | 972.8 |
| 20260509235631 | 10 | 31 | 0.0 | 0.0 | 0.00 | 1.45 | 1.45 | 92 | 972.8 |
| 20260509235131 | 10 | 31 | 0.0 | 0.0 | 0.00 | 1.45 | 1.45 | 92 | 972.7 |
| 20260509234630 | 10 | 31 | 0.0 | 0.0 | 0.00 | 1.45 | 1.45 | 92 | 972.6 |
| 20260509234129 | 10 | 31 | 0.0 | 0.0 | 0.00 | 1.45 | 1.45 | 92 | 972.6 |
| 20260509233629 | 10 | 31 | 0.0 | 0.0 | 0.00 | 1.45 | 1.45 | 92 | 972.6 |
| 20260509233129 | 10 | 31 | 0.0 | 0.0 | 0.00 | 1.45 | 1.45 | 92 | 972.5 |
| 20260509232628 | 10 | 31 | 0.0 | 0.0 | 0.00 | 1.45 | 1.45 | 92 | 972.6 |
| 20260509232125 | 10 | 31 | 0.0 | 0.0 | 0.00 | 1.45 | 1.45 | 92 | 972.7 |
| 20260509231623 | 10 | 31 | 0.0 | 0.0 | 0.00 | 1.45 | 1.45 | 92 | 972.7 |
| 20260509231123 | 10 | 273 | 0.0 | 0.0 | 0.00 | 1.45 | 1.45 | 92 | 972.7 |
| 20260509230123 | 10 | 273 | 0.0 | 0.0 | 0.00 | 1.45 | 1.45 | 92 | 972.7 |
| 20260509225623 | 10 | 273 | 0.0 | 0.0 | 0.00 | 1.45 | 1.45 | 92 | 972.7 |
| 20260509225117 | 10 | 273 | 0.0 | 0.0 | 0.00 | 1.45 | 1.45 | 92 | 972.7 |
| 20260509224611 | 10 | 273 | 0.0 | 0.0 | 0.00 | 1.45 | 1.45 | 92 | 972.7 |
| 20260509224104 | 10 | 231 | 0.0 | 1.6 | 0.00 | 1.45 | 1.45 | 92 | 972.7 |
| 20260509223602 | 10 | 205 | 0.0 | 1.6 | 0.00 | 1.45 | 1.45 | 93 | 972.8 |
| 20260509223103 | 10 | 205 | 0.0 | 1.6 | 0.00 | 1.45 | 1.45 | 93 | 972.7 |
| 20260509222601 | 10 | 205 | 0.0 | 0.0 | 0.00 | 1.45 | 1.45 | 93 | 972.7 |
| 20260509222102 | 10 | 205 | 0.0 | 0.0 | 0.00 | 1.45 | 1.45 | 93 | 972.7 |
| 20260509221559 | 10 | 205 | 0.0 | 1.6 | 0.00 | 1.45 | 1.45 | 93 | 972.7 |
| 20260509221056 | 10 | 205 | 0.0 | 1.6 | 0.00 | 1.45 | 1.45 | 93 | 972.6 |
| 20260509220555 | 10 | 205 | 0.0 | 1.6 | 0.00 | 1.45 | 1.45 | 93 | 972.6 |
| 20260509220053 | 10 | 205 | 0.0 | 1.6 | 0.00 | 1.45 | 1.45 | 93 | 972.7 |
| 20260509215551 | 10 | 205 | 0.0 | 1.6 | 0.00 | 1.45 | 1.45 | 93 | 972.7 |
| 20260509215048 | 10 | 205 | 0.0 | 1.6 | 0.00 | 1.45 | 1.45 | 93 | 972.8 |
| 20260509214546 | 10 | 208 | 0.0 | 1.6 | 0.00 | 1.45 | 1.45 | 93 | 972.8 |
| 20260509213547 | 10 | 192 | 0.0 | 0.0 | 0.00 | 1.45 | 1.45 | 93 | 972.9 |
| 20260509213046 | 10 | 192 | 0.0 | 0.0 | 0.00 | 1.45 | 1.45 | 93 | 972.9 |
| 20260509212543 | 10 | 192 | 0.0 | 1.6 | 0.00 | 1.45 | 1.45 | 93 | 973.0 |
| 20260509211542 | 10 | 250 | 0.0 | 0.0 | 0.00 | 1.45 | 1.45 | 94 | 973.2 |
| 20260509210042 | 10 | 252 | 0.0 | 0.0 | 0.03 | 1.45 | 1.45 | 93 | 973.3 |
| 20260509205542 | 10 | 252 | 0.0 | 0.0 | 0.05 | 1.45 | 1.45 | 94 | 973.4 |
| 20260509205042 | 10 | 252 | 0.0 | 0.0 | 0.08 | 1.45 | 1.45 | 94 | 973.5 |
| 20260509204542 | 10 | 244 | 0.0 | 0.0 | 0.10 | 1.45 | 1.45 | 94 | 973.5 |
| 20260509204043 | 10 | 243 | 0.0 | 0.0 | 0.13 | 1.45 | 1.45 | 94 | 973.5 |
| 20260509203543 | 10 | 243 | 0.0 | 0.0 | 0.13 | 1.45 | 1.45 | 94 | 973.5 |
| 20260509203043 | 10 | 243 | 0.0 | 0.0 | 0.18 | 1.45 | 1.45 | 94 | 973.5 |
| 20260509202542 | 10 | 243 | 0.0 | 0.0 | 0.20 | 1.45 | 1.45 | 94 | 973.6 |
| 20260509202042 | 10 | 263 | 0.0 | 0.0 | 0.23 | 1.45 | 1.45 | 94 | 973.7 |
| 20260509201543 | 10 | 263 | 0.0 | 8.0 | 0.28 | 1.45 | 1.45 | 94 | 973.7 |
| 20260509201042 | 9 | 154 | 0.0 | 8.0 | 0.28 | 1.42 | 1.42 | 94 | 973.8 |
| 20260509200543 | 9 | 163 | 0.0 | 0.0 | 0.30 | 1.42 | 1.42 | 94 | 973.9 |
| 20260509200042 | 9 | 163 | 0.0 | 0.0 | 0.36 | 1.42 | 1.42 | 94 | 973.9 |
| 20260509195036 | 9 | 163 | 0.0 | 0.0 | 0.36 | 1.37 | 1.37 | 94 | 973.9 |
| 20260509194534 | 9 | 163 | 0.0 | 0.0 | 0.33 | 1.35 | 1.37 | 94 | 974.0 |
| 20260509194032 | 9 | 163 | 0.0 | 0.0 | 0.30 | 1.32 | 1.35 | 94 | 974.0 |
| 20260509193530 | 9 | 163 | 0.0 | 0.0 | 0.30 | 1.32 | 1.32 | 93 | 974.0 |
| 20260509192527 | 9 | 163 | 0.0 | 0.0 | 0.25 | 1.24 | 1.24 | 93 | 974.1 |
| 20260509191522 | 9 | 163 | 0.0 | 0.0 | 0.20 | 1.17 | 1.17 | 93 | 974.2 |
| 20260509191021 | 9 | 163 | 0.0 | 0.0 | 0.18 | 1.14 | 1.14 | 94 | 974.0 |